DW8785 Weather Reports


time (UTC)temp
C
wind
direction
speed
KPH
gust
KPH
rain 1hr
cm
rain 24hr
cm
rain mn
cm
humidity
%
barometer
mb
20260505054516 10 354 8.0 0.0 0.00 0.00 0.23 93 1010.3
20260505053012 10 192 8.0 0.0 0.00 0.00 0.20 89 1010.1
20260505051511 9 179 0.0 0.0 0.00 0.00 0.20 91 1010.3
20260505041551 9 184 11.3 0.0 0.00 0.00 0.20 89 1010.4
20260505040047 9 189 11.3 0.0 0.00 0.00 0.20 90 1010.3
20260505034542 9 189 14.5 0.0 0.00 0.00 0.20 90 1010.5
20260505033041 9 191 16.1 0.0 0.00 0.00 0.18 88 1010.3
20260505031548 10 189 19.3 0.0 0.00 0.00 0.13 87 1010.5
20260505030029 10 188 19.3 0.0 0.00 0.00 0.10 84 1010.4
20260505024542 10 241 17.7 0.0 0.00 0.00 0.10 80 1010.8
20260505023031 10 357 19.3 0.0 0.00 0.00 0.10 78 1010.7
20260505021516 10 189 20.9 0.0 0.00 0.00 0.10 77 1010.8
20260505020017 10 359 22.5 0.0 0.00 0.00 0.10 78 1010.7
20260505014508 10 195 22.5 0.0 0.00 0.00 0.10 76 1010.9
20260505013003 10 357 19.3 0.0 0.00 0.00 0.10 78 1010.9
20260505011600 10 357 27.4 0.0 0.00 0.00 0.10 75 1011.0
20260505010056 10 357 25.7 0.0 0.00 0.00 0.10 78 1011.2
20260505004554 10 357 27.4 0.0 0.00 0.00 0.08 79 1011.4
20260505003044 11 340 29.0 0.0 0.00 0.00 0.03 76 1011.3
20260505001544 11 357 27.4 0.0 0.00 0.00 0.00 71 1011.6
20260505000036 11 280 29.0 0.0 0.00 0.00 0.00 68 1011.7
20260504234532 11 284 29.0 0.0 0.00 0.00 0.00 68 1012.0
20260504233028 11 284 20.9 0.0 0.00 0.00 0.00 67 1012.3
20260504231522 11 359 19.3 0.0 0.00 0.00 0.00 70 1012.5
20260504230018 11 357 22.5 0.0 0.00 0.00 0.00 72 1012.7
20260504224513 11 272 22.5 0.0 0.00 0.00 0.00 74 1012.7
20260504223009 11 357 22.5 0.0 0.00 0.00 0.00 75 1012.8
20260504221504 11 359 25.7 0.0 0.00 0.00 0.00 75 1012.8
20260504220106 11 356 24.1 0.0 0.00 0.00 0.00 75 1013.1
20260504214604 11 0 19.3 0.0 0.00 0.00 0.00 74 1013.4
20260504213054 11 0 20.9 0.0 0.00 0.00 0.00 73 1013.5
20260504211546 11 196 17.7 0.0 0.00 0.00 0.00 72 1013.7
20260504210055 12 359 24.1 0.0 0.00 0.00 0.00 69 1013.7
20260504204552 12 357 25.7 0.0 0.00 0.00 0.00 70 1013.5
20260504203035 12 280 20.9 0.0 0.00 0.00 0.00 70 1013.7
20260504201528 12 357 17.7 0.0 0.00 0.00 0.00 69 1013.8
20260504200025 12 359 20.9 0.0 0.00 0.00 0.00 68 1013.5
20260504194521 13 292 25.7 0.0 0.00 0.00 0.00 69 1013.3
20260504193016 13 359 24.1 0.0 0.00 0.00 0.00 68 1013.2
20260504191511 13 281 20.9 0.0 0.00 0.00 0.00 65 1013.2
20260504190008 13 186 22.5 0.0 0.00 0.00 0.00 64 1013.1
20260504184503 14 359 22.5 0.0 0.00 0.00 0.00 63 1013.1
20260504183104 14 357 19.3 0.0 0.00 0.00 0.00 63 1013.1
20260504181555 15 359 20.9 0.0 0.00 0.00 0.00 63 1013.2
20260504180105 15 203 19.3 0.0 0.00 0.00 0.00 62 1013.2
20260504174546 15 359 19.3 0.0 0.00 0.00 0.00 60 1013.1
20260504173049 15 359 20.9 0.0 0.00 0.00 0.00 60 1012.9
20260504171538 15 357 16.1 0.0 0.00 0.00 0.00 58 1013.0
20260504081600 15 191 25.7 0.0 0.00 0.00 0.00 48 1015.3